period_start,C,m1,H,J0,J1,J2,J3,J4,J5,JA,JB,JC,JD,JJ,JK,JN,#
2016-10-07 08:17:06,0.00,0.00,0.00,13.77,15.77,14.33,13.76,40.62,1032.47,1943.26,3425.38,3008.84,3414.63,553.08,577.22,0.01,0000 0000 0000 0000 000000
2016-10-07 08:22:07,0.00,0.00,0.00,13.88,15.63,15.85,14.90,43.98,1032.77,2080.43,3662.90,3219.25,3654.22,600.32,625.08,0.06,0000 0000 0000 0000 000000
2016-10-07 08:27:08,0.01,0.00,0.00,14.11,15.53,16.85,14.98,44.02,1033.18,2080.83,3660.88,3218.11,3653.04,600.27,624.79,0.11,0000 0000 0000 0000 000000
2016-10-07 08:32:09,0.03,0.01,0.00,14.46,15.46,17.39,14.84,44.05,1033.22,2081.00,3659.49,3217.45,3652.20,599.89,623.61,0.16,0000 0000 0000 0000 000000
2016-10-07 08:37:10,0.04,0.01,0.00,14.83,15.44,17.65,14.90,43.92,1033.30,2081.07,3658.11,3216.72,3651.41,600.35,623.41,0.21,0000 0000 0000 0000 000000
2016-10-07 08:42:11,0.08,0.01,0.00,15.22,15.47,18.02,14.90,43.87,1033.56,2081.43,3656.42,3215.70,3650.39,600.07,622.32,0.26,0000 0000 0000 0000 000000
2016-10-07 08:47:13,0.23,0.02,0.00,15.62,15.54,18.45,14.92,43.86,1033.70,2081.55,3650.61,3212.45,3646.78,600.50,622.10,0.31,0000 0000 0000 0000 000000
2016-10-07 08:52:14,0.15,0.03,0.00,16.01,15.65,18.90,14.84,43.92,1033.71,2081.15,3645.11,3208.85,3642.85,599.96,620.72,0.36,0000 0000 0000 0000 000000
2016-10-07 08:57:15,0.13,0.04,0.00,16.37,15.79,19.33,14.78,43.92,1033.72,2081.01,3641.78,3206.45,3640.18,600.39,620.22,0.41,0000 0000 0000 0000 000000
2016-10-07 09:02:17,0.35,0.05,0.00,16.72,15.97,19.77,14.77,43.81,1033.77,2080.84,3634.78,3201.55,3634.76,599.77,619.10,0.46,0000 0000 0000 0000 000000
2016-10-07 09:07:18,0.28,0.07,0.00,17.00,16.18,20.19,14.81,43.82,1033.89,2080.07,3625.91,3195.37,3627.76,600.02,618.61,0.51,0000 0000 0000 0000 000000
2016-10-07 09:12:19,0.09,0.08,0.00,17.29,16.41,20.61,14.86,43.86,1034.14,2079.51,3621.77,3192.20,3624.25,599.95,618.19,0.56,0000 0000 0000 0000 000000
2016-10-07 09:17:21,0.10,0.08,0.00,17.53,16.66,20.99,14.77,43.83,1034.19,2078.81,3618.65,3189.72,3621.42,599.90,617.67,0.61,0000 0000 0000 0000 000000
2016-10-07 09:22:22,0.06,0.09,0.00,17.79,16.92,21.36,14.75,43.72,1034.20,2077.97,3615.95,3187.41,3618.81,599.86,617.04,0.66,0000 0000 0000 0000 000000
2016-10-07 09:27:23,0.02,0.09,0.00,18.05,17.20,21.75,14.77,43.78,1034.26,2077.09,3613.82,3185.53,3616.58,600.01,616.67,0.71,0000 0000 0000 0000 000000
2016-10-07 09:32:25,0.02,0.09,0.00,18.29,17.49,22.15,14.80,43.71,1034.52,2076.23,3611.95,3183.75,3614.49,600.28,616.71,0.76,0000 0000 0000 0000 000000
2016-10-07 09:37:26,0.02,0.09,0.00,18.48,17.79,22.56,14.82,43.73,1034.67,2075.26,3609.95,3181.87,3612.29,600.10,616.13,0.81,0000 0000 0000 0000 000000
2016-10-07 09:42:27,0.02,0.09,0.00,18.68,18.09,22.88,14.71,43.64,1034.68,2074.21,3607.76,3179.87,3610.02,599.65,615.29,0.86,0000 0000 0000 0000 000000
2016-10-07 09:47:28,0.02,0.09,0.00,18.91,18.40,23.25,14.71,43.62,1034.68,2073.11,3605.69,3177.92,3607.73,599.92,615.06,0.91,0000 0000 0000 0000 000000
2016-10-07 09:52:29,0.01,0.09,0.00,19.13,18.70,23.59,14.79,43.71,1034.70,2071.99,3603.61,3175.94,3605.40,599.84,614.52,0.96,0000 0000 0000 0000 000000
2016-10-07 09:57:30,-0.00,0.09,0.00,19.32,19.01,23.91,14.73,43.72,1034.79,2070.79,3601.42,3173.87,3603.03,599.67,613.95,1.01,0000 0000 0000 0000 000000
2016-10-07 10:02:32,0.01,0.10,0.00,19.52,19.32,24.22,14.64,43.52,1034.96,2069.67,3599.34,3171.87,3600.67,599.79,613.80,1.06,0000 0000 0000 0000 000000
2016-10-07 10:07:33,0.01,0.10,0.00,19.68,19.63,24.51,14.71,43.59,1035.10,2068.56,3597.26,3169.89,3598.35,600.11,613.93,1.11,0000 0000 0000 0000 000000
2016-10-07 10:12:34,0.02,0.10,0.00,19.84,19.93,24.78,14.81,43.48,1035.16,2067.39,3595.08,3167.85,3595.95,600.33,613.80,1.16,0000 0000 0000 0000 000000
2016-10-07 10:17:36,0.03,0.10,0.00,20.00,20.22,25.08,14.75,43.51,1035.17,2066.23,3592.83,3165.67,3593.49,600.10,613.27,1.21,0000 0000 0000 0000 000000
2016-10-07 10:22:37,0.02,0.10,0.00,20.14,20.51,25.33,14.77,43.57,1035.17,2065.08,3590.58,3163.60,3591.05,599.99,612.78,1.26,0000 0000 0000 0000 000000
2016-10-07 10:27:38,0.02,0.10,0.00,20.28,20.79,25.55,14.79,43.51,1035.19,2063.93,3588.21,3161.46,3588.53,599.94,612.46,1.31,0000 0000 0000 0000 000000
2016-10-07 10:32:39,0.09,0.10,0.00,20.41,21.07,25.80,14.78,43.40,1035.20,2062.81,3584.63,3158.44,3585.13,599.64,611.92,1.36,0000 0000 0000 0000 000000
2016-10-07 10:37:41,0.11,0.11,0.00,20.53,21.35,26.05,14.69,43.38,1035.28,2061.73,3580.22,3154.82,3581.20,599.75,611.77,1.41,0000 0000 0000 0000 000000
2016-10-07 10:42:42,0.11,0.12,0.00,20.64,21.61,26.27,14.71,43.34,1035.42,2060.62,3575.52,3151.16,3577.05,599.55,611.48,1.46,0000 0000 0000 0000 000000
2016-10-07 10:47:44,0.08,0.12,0.00,20.77,21.87,26.48,14.73,43.38,1035.57,2059.57,3571.60,3148.05,3573.53,599.79,611.54,1.51,0000 0000 0000 0000 000000
2016-10-07 10:52:45,0.07,0.12,0.00,20.90,22.12,26.66,14.78,43.31,1035.63,2058.45,3568.01,3145.23,3570.23,600.36,611.89,1.56,0000 0000 0000 0000 000000
2016-10-07 10:57:47,0.07,0.13,0.00,20.99,22.37,26.80,14.70,43.30,1035.66,2057.47,3564.77,3142.61,3567.24,599.86,611.28,1.61,0000 0000 0000 0000 000000
2016-10-07 11:02:48,0.07,0.13,0.00,21.10,22.61,26.93,14.77,43.30,1035.66,2056.50,3561.61,3140.02,3564.20,599.68,610.83,1.66,0000 0000 0000 0000 000000
2016-10-07 11:07:50,0.04,0.13,0.00,21.20,22.84,27.08,14.69,43.21,1035.66,2055.48,3558.93,3137.73,3561.61,599.80,610.66,1.71,0000 0000 0000 0000 000000
2016-10-07 11:12:51,0.03,0.13,0.00,21.27,23.06,27.25,14.74,43.31,1035.66,2054.54,3556.68,3135.76,3559.33,599.95,610.77,1.76,0000 0000 0000 0000 000000
2016-10-07 11:17:52,0.03,0.14,0.00,21.36,23.28,27.36,14.75,43.33,1035.66,2053.56,3554.35,3133.94,3556.93,599.96,610.54,1.81,0000 0000 0000 0000 000000
2016-10-07 11:22:53,0.05,0.14,0.00,21.44,23.49,27.50,14.68,43.22,1035.67,2052.65,3551.85,3131.83,3554.51,599.93,610.37,1.87,0000 0000 0000 0000 000000
2016-10-07 11:27:54,0.05,0.14,0.00,21.53,23.69,27.63,14.72,43.23,1035.69,2051.81,3549.39,3129.85,3552.23,599.96,610.27,1.92,0000 0000 0000 0000 000000
2016-10-07 11:32:55,0.04,0.14,0.00,21.62,23.89,27.78,14.78,43.31,1035.71,2050.94,3547.32,3128.04,3550.08,600.22,610.26,1.97,0000 0000 0000 0000 000000
2016-10-07 11:37:56,0.07,0.14,0.00,21.68,24.09,27.88,14.73,43.18,1035.77,2050.07,3544.48,3125.88,3547.51,599.91,609.95,2.02,0000 0000 0000 0000 000000
2016-10-07 11:42:58,0.02,0.15,0.00,21.76,24.28,28.00,14.75,43.24,1035.79,2049.22,3541.85,3123.79,3545.14,599.96,609.81,2.07,0000 0000 0000 0000 000000
2016-10-07 11:47:59,0.00,0.15,0.00,21.81,24.46,28.13,14.76,43.20,1035.90,2048.33,3539.90,3122.09,3543.10,600.12,609.80,2.12,0000 0000 0000 0000 000000
2016-10-07 11:53:00,0.01,0.15,0.00,21.90,24.63,28.26,14.74,43.24,1035.93,2047.53,3538.09,3120.52,3541.22,600.09,609.66,2.17,0000 0000 0000 0000 000000
2016-10-07 11:58:01,0.07,0.15,0.00,21.98,24.80,28.38,14.66,43.27,1035.97,2047.00,3536.42,3118.98,3539.45,599.79,609.31,2.22,0000 0000 0000 0000 000000
2016-10-07 12:03:03,0.01,0.15,0.00,22.04,24.96,28.52,14.69,43.28,1036.01,2046.44,3534.75,3117.53,3537.72,599.82,609.25,2.27,0000 0000 0000 0000 000000
2016-10-07 12:08:04,0.07,0.16,0.00,22.12,25.12,28.65,14.75,43.23,1036.00,2045.85,3532.64,3115.77,3535.73,600.04,609.23,2.32,0000 0000 0000 0000 000000
2016-10-07 12:13:06,0.05,0.16,0.00,22.18,25.27,28.79,14.75,43.17,1035.88,2045.05,3530.04,3113.76,3533.43,600.08,609.08,2.37,0000 0000 0000 0000 000000
2016-10-07 12:18:07,0.00,0.16,0.00,22.25,25.41,28.92,14.74,43.14,1035.89,2044.29,3528.13,3112.15,3531.57,600.01,608.92,2.42,0000 0000 0000 0000 000000
2016-10-07 12:23:08,0.09,0.16,0.00,22.33,25.55,29.07,14.67,43.13,1035.90,2043.84,3525.64,3110.27,3529.42,599.88,608.59,2.47,0000 0000 0000 0000 000000
2016-10-07 12:28:09,0.05,0.17,0.00,22.39,25.69,29.21,14.77,43.13,1035.95,2043.07,3523.24,3108.42,3527.33,600.16,608.78,2.52,0000 0000 0000 0000 000000
2016-10-07 12:33:11,0.05,0.17,0.00,22.45,25.82,29.35,14.74,43.17,1036.02,2042.53,3520.60,3106.46,3525.09,600.00,608.52,2.57,0000 0000 0000 0000 000000
2016-10-07 12:38:12,0.14,0.17,0.00,22.51,25.95,29.47,14.73,43.16,1035.95,2041.97,3517.43,3104.02,3522.32,600.10,608.50,2.62,0000 0000 0000 0000 000000
2016-10-07 12:43:13,0.05,0.18,0.00,22.57,26.07,29.61,14.68,43.22,1035.98,2041.18,3514.19,3101.49,3519.57,599.81,607.98,2.67,0000 0000 0000 0000 000000
2016-10-07 12:48:14,0.12,0.18,0.00,22.63,26.19,29.75,14.74,43.20,1036.10,2040.93,3511.31,3099.38,3517.31,600.09,608.32,2.72,0000 0000 0000 0000 000000
2016-10-07 12:53:15,0.07,0.19,0.00,22.66,26.31,29.90,14.74,43.35,1036.05,2040.18,3507.89,3096.97,3514.52,599.99,608.16,2.77,0000 0000 0000 0000 000000
2016-10-07 12:58:17,0.15,0.20,0.00,22.72,26.42,30.02,14.72,43.26,1035.89,2039.90,3504.39,3094.44,3511.69,599.75,607.67,2.82,0000 0000 0000 0000 000000
2016-10-07 13:03:18,0.08,0.20,0.00,22.77,26.53,30.11,14.67,43.21,1035.95,2039.15,3500.58,3091.66,3508.63,600.21,607.96,2.87,0000 0000 0000 0000 000000
2016-10-07 13:08:19,0.14,0.21,0.00,22.82,26.62,30.22,14.70,43.17,1036.11,2038.90,3497.10,3089.14,3505.77,599.96,607.85,2.92,0000 0000 0000 0000 000000
2016-10-07 13:13:21,0.09,0.21,0.00,22.84,26.72,30.28,14.72,43.14,1036.13,2038.13,3493.55,3086.70,3503.01,599.99,607.80,2.97,0000 0000 0000 0000 000000
2016-10-07 13:18:22,0.17,0.22,0.00,22.88,26.82,30.38,14.71,43.23,1036.13,2037.95,3489.49,3083.79,3499.78,599.88,607.57,3.02,0000 0000 0000 0000 000000
2016-10-07 13:23:23,0.08,0.23,0.00,22.94,26.91,30.46,14.75,43.20,1036.15,2037.18,3485.82,3081.19,3496.88,600.08,607.76,3.07,0000 0000 0000 0000 000000
2016-10-07 13:28:24,0.15,0.23,0.00,22.98,27.01,30.55,14.81,43.21,1036.15,2036.99,3482.24,3078.63,3494.06,600.31,607.84,3.12,0000 0000 0000 0000 000000
2016-10-07 13:33:25,0.03,0.24,0.00,23.00,27.09,30.61,14.74,43.32,1036.15,2036.41,3479.58,3076.72,3491.84,599.82,607.33,3.17,0000 0000 0000 0000 000000
2016-10-07 13:38:26,0.07,0.24,0.00,23.03,27.18,30.68,14.75,43.22,1036.15,2036.00,3477.69,3075.37,3490.30,599.92,607.41,3.22,0000 0000 0000 0000 000000
2016-10-07 13:43:27,0.07,0.24,0.00,23.08,27.26,30.75,14.75,43.19,1036.15,2035.86,3475.69,3073.87,3488.63,600.12,607.46,3.27,0000 0000 0000 0000 000000
2016-10-07 13:48:28,0.03,0.25,0.00,23.12,27.34,30.81,14.74,43.16,1036.15,2035.14,3473.63,3072.40,3486.86,600.09,607.34,3.32,0000 0000 0000 0000 000000
2016-10-07 13:53:30,0.07,0.25,0.00,23.13,27.42,30.87,14.69,43.10,1036.15,2035.00,3471.79,3071.11,3485.37,599.88,607.10,3.37,0000 0000 0000 0000 000000
2016-10-07 13:58:31,0.03,0.25,0.00,23.19,27.49,30.92,14.82,43.06,1036.15,2034.73,3470.28,3069.97,3483.94,599.96,606.98,3.42,0000 0000 0000 0000 000000
2016-10-07 14:03:32,0.04,0.25,0.00,23.21,27.57,30.97,14.67,42.82,1036.15,2034.08,3468.48,3068.63,3482.48,599.47,606.60,3.47,0000 0000 0000 0000 000000
2016-10-07 14:08:33,0.08,0.26,0.00,23.24,27.64,31.05,14.70,42.96,1036.15,2033.98,3466.66,3067.39,3480.87,600.03,607.03,3.52,0000 0000 0000 0000 000000
2016-10-07 14:13:35,0.02,0.26,0.00,23.27,27.70,31.10,14.69,43.10,1036.15,2033.48,3464.84,3065.98,3479.37,599.68,606.62,3.57,0000 0000 0000 0000 000000
2016-10-07 14:18:36,0.03,0.26,0.00,23.29,27.77,31.16,14.77,43.02,1036.15,2033.04,3463.67,3065.03,3478.30,600.15,607.03,3.62,0000 0000 0000 0000 000000
2016-10-07 14:23:38,0.05,0.26,0.00,23.42,27.83,31.23,14.75,42.95,1036.15,2032.99,3462.44,3064.10,3477.20,599.66,606.37,3.67,0000 0000 0000 0000 000000
2016-10-07 14:28:39,0.01,0.26,0.00,23.77,27.90,31.30,14.71,42.87,1036.15,2032.70,3461.55,3063.38,3476.34,599.94,605.86,3.72,0000 0000 0000 0000 000000
2016-10-07 14:33:40,0.01,0.26,0.00,23.91,27.97,31.33,14.62,42.79,1036.15,2032.13,3460.67,3062.61,3475.50,599.79,605.35,3.77,0000 0000 0000 0000 000000
2016-10-07 14:38:41,0.05,0.27,0.00,23.96,28.04,31.40,14.66,42.94,1036.15,2032.00,3459.44,3061.67,3474.32,599.80,605.28,3.82,0000 0000 0000 0000 000000
2016-10-07 14:43:43,0.07,0.27,0.00,24.03,28.11,31.46,14.70,42.97,1036.15,2031.91,3457.91,3060.45,3473.03,600.13,605.57,3.87,0000 0000 0000 0000 000000
2016-10-07 14:48:44,0.07,0.27,0.00,24.08,28.17,31.54,14.68,42.88,1036.15,2031.28,3454.96,3058.43,3470.72,600.08,605.36,3.92,0000 0000 0000 0000 000000
2016-10-07 14:53:45,0.08,0.28,0.00,24.08,28.24,31.60,14.70,42.95,1036.15,2031.01,3452.52,3056.73,3468.82,600.15,605.49,3.97,0000 0000 0000 0000 000000
2016-10-07 14:58:46,0.04,0.28,0.00,24.14,28.30,31.66,14.67,42.73,1036.15,2030.93,3451.27,3055.83,3467.71,600.02,605.23,4.02,0000 0000 0000 0000 000000
2016-10-07 15:03:48,-0.01,0.28,0.00,24.17,28.36,31.71,14.64,42.76,1036.12,2030.44,3450.18,3054.94,3466.72,599.79,604.88,4.07,0000 0000 0000 0000 000000
2016-10-07 15:08:49,0.03,0.28,0.00,24.17,28.42,31.75,14.64,42.88,1036.12,2030.02,3449.09,3054.07,3465.86,599.92,605.01,4.12,0000 0000 0000 0000 000000
2016-10-07 15:13:50,0.04,0.28,0.00,24.20,28.47,31.79,14.72,42.86,1036.09,2030.00,3448.44,3053.52,3465.05,600.20,605.11,4.17,0000 0000 0000 0000 000000
2016-10-07 15:18:51,0.01,0.29,0.00,24.23,28.52,31.83,14.60,42.65,1036.05,2029.92,3447.99,3053.01,3464.63,599.65,604.52,4.22,0000 0000 0000 0000 000000
2016-10-07 15:23:52,-0.02,0.28,0.00,24.23,28.57,31.86,14.65,42.79,1036.02,2029.34,3447.15,3052.32,3463.87,599.96,604.69,4.28,0000 0000 0000 0000 000000
2016-10-07 15:28:54,0.01,0.29,0.00,24.26,28.62,31.90,14.64,42.78,1036.01,2029.02,3446.31,3051.90,3463.05,599.61,604.44,4.33,0000 0000 0000 0000 000000
2016-10-07 15:33:55,0.04,0.29,0.00,24.32,28.66,31.94,14.67,42.83,1035.96,2029.00,3445.71,3051.08,3462.35,599.93,604.66,4.38,0000 0000 0000 0000 000000
2016-10-07 15:38:56,0.02,0.29,0.00,24.36,28.70,31.94,14.66,42.73,1035.88,2028.96,3445.00,3050.68,3461.81,599.82,604.46,4.43,0000 0000 0000 0000 000000
2016-10-07 15:43:58,-0.02,0.29,0.00,24.40,28.74,31.98,14.62,42.83,1035.90,2028.57,3444.27,3050.02,3461.05,600.20,604.66,4.48,0000 0000 0000 0000 000000
2016-10-07 15:48:59,0.01,0.29,0.00,24.45,28.78,32.01,14.70,42.79,1035.98,2028.10,3443.70,3049.54,3460.52,599.83,604.29,4.53,0000 0000 0000 0000 000000
2016-10-07 15:54:00,0.01,0.29,0.00,24.49,28.81,32.03,14.69,42.81,1035.98,2028.01,3443.04,3049.01,3460.01,599.95,604.31,4.58,0000 0000 0000 0000 000000
2016-10-07 15:59:01,0.01,0.29,0.00,24.53,28.84,32.04,14.67,42.82,1035.86,2028.00,3442.90,3048.94,3459.75,599.73,603.76,4.63,0000 0000 0000 0000 000000
2016-10-07 16:04:03,0.04,0.29,0.00,24.58,28.87,32.06,14.63,42.68,1035.94,2028.00,3442.10,3048.25,3459.06,600.00,604.14,4.68,0000 0000 0000 0000 000000
2016-10-07 16:09:04,0.02,0.29,0.00,24.61,28.90,32.07,14.61,42.68,1035.88,2027.98,3441.64,3047.99,3458.65,600.00,604.06,4.73,0000 0000 0000 0000 000000
2016-10-07 16:14:05,0.03,0.29,0.00,24.60,28.92,32.07,14.68,42.82,1035.77,2027.95,3440.96,3047.27,3458.02,600.29,604.21,4.78,0000 0000 0000 0000 000000
2016-10-07 16:19:07,0.01,0.29,0.00,24.61,28.95,32.07,14.62,42.63,1035.71,2027.75,3440.16,3046.99,3457.36,600.17,604.04,4.83,0000 0000 0000 0000 000000
2016-10-07 16:24:08,0.01,0.30,0.00,24.62,28.97,32.08,14.54,42.62,1035.68,2027.58,3439.64,3046.49,3456.92,599.30,603.26,4.88,0000 0000 0000 0000 000000
2016-10-07 16:29:09,0.02,0.30,0.00,24.62,28.99,32.09,14.63,42.73,1035.68,2027.11,3438.32,3045.69,3456.09,599.34,603.29,4.93,0000 0000 0000 0000 000000
2016-10-07 16:34:10,0.03,0.30,0.00,24.64,29.00,32.10,14.60,42.54,1035.68,2027.06,3437.73,3045.04,3455.54,600.24,604.05,4.98,0000 0000 0000 0000 000000
2016-10-07 16:39:12,0.01,0.30,0.00,24.62,29.01,32.09,14.72,42.69,1035.82,2027.04,3437.04,3044.97,3455.03,600.41,604.40,5.03,0000 0000 0000 0000 000000
2016-10-07 16:44:13,0.01,0.30,0.00,24.64,29.02,32.10,14.64,42.71,1035.99,2027.01,3436.82,3044.46,3454.96,599.94,604.07,5.08,0000 0000 0000 0000 000000
2016-10-07 16:49:14,0.03,0.30,0.00,24.64,29.02,32.08,14.66,42.65,1035.90,2027.00,3435.98,3044.01,3454.19,600.38,604.29,5.13,0000 0000 0000 0000 000000
2016-10-07 16:54:15,0.15,0.30,0.00,24.63,29.02,32.09,14.68,42.67,1035.81,2027.00,3433.32,3042.44,3452.43,600.14,604.10,5.18,0000 0000 0000 0000 000000
2016-10-07 16:59:17,0.22,0.32,0.00,24.65,29.02,32.13,14.58,42.50,1035.79,2027.00,3427.95,3039.37,3449.03,599.85,603.73,5.23,0000 0000 0000 0000 000000
2016-10-07 17:04:18,0.13,0.33,0.00,24.65,29.02,32.10,14.60,42.73,1035.75,2026.99,3423.98,3037.08,3446.42,599.97,603.89,5.28,0000 0000 0000 0000 000000
2016-10-07 17:09:19,0.16,0.33,0.00,24.66,29.02,32.08,14.66,42.72,1035.72,2026.98,3420.31,3035.03,3444.26,600.16,604.01,5.33,0000 0000 0000 0000 000000
2016-10-07 17:14:20,0.19,0.34,0.00,24.63,29.02,32.10,14.63,42.73,1035.73,2026.99,3415.44,3032.25,3441.22,600.02,603.89,5.38,0000 0000 0000 0000 000000
2016-10-07 17:19:21,0.15,0.35,0.00,24.62,29.02,32.10,14.57,42.66,1035.72,2026.99,3411.51,3030.02,3438.78,600.01,603.95,5.43,0000 0000 0000 0000 000000
2016-10-07 17:24:22,0.14,0.36,0.00,24.62,29.02,32.11,14.66,42.76,1035.68,2026.99,3407.93,3027.97,3436.47,600.32,604.28,5.48,0000 0000 0000 0000 000000
2016-10-07 17:29:24,0.22,0.37,0.00,24.62,29.00,32.06,14.60,42.64,1035.66,2026.99,3402.85,3025.04,3433.25,599.94,603.83,5.53,0000 0000 0000 0000 000000
2016-10-07 17:34:25,0.20,0.38,0.00,24.63,29.00,32.08,14.61,42.62,1035.66,2026.99,3397.58,3021.99,3429.90,599.92,603.84,5.58,0000 0000 0000 0000 000000
2016-10-07 17:39:26,0.11,0.39,0.00,24.63,29.00,32.05,14.68,42.85,1035.66,2026.99,3394.16,3019.97,3427.69,600.39,604.24,5.63,0000 0000 0000 0000 000000
2016-10-07 17:44:28,0.10,0.39,0.00,24.63,28.98,32.02,14.61,42.61,1035.65,2026.99,3391.61,3018.52,3426.01,600.25,604.19,5.68,0000 0000 0000 0000 000000
2016-10-07 17:49:29,0.12,0.40,0.00,24.63,28.97,32.07,14.57,42.58,1035.66,2026.99,3388.75,3016.81,3424.19,599.92,603.79,5.73,0000 0000 0000 0000 000000
2016-10-07 17:54:30,0.12,0.40,0.00,24.65,28.96,32.05,14.54,42.73,1035.66,2026.99,3385.80,3015.12,3422.29,599.60,603.43,5.78,0000 0000 0000 0000 000000
2016-10-07 17:59:31,0.11,0.41,0.00,24.64,28.95,32.03,14.60,42.67,1035.66,2026.99,3382.87,3013.43,3420.43,600.10,603.83,5.83,0000 0000 0000 0000 000000
2016-10-07 18:04:33,0.01,0.41,0.00,24.65,28.93,31.99,14.66,42.82,1035.65,2026.99,3382.01,3013.00,3420.00,599.90,603.71,5.88,0000 0000 0000 0000 000000
2016-10-07 18:09:34,0.04,0.41,0.00,24.62,28.92,31.98,14.67,42.77,1035.60,2026.99,3381.23,3012.59,3419.43,600.10,603.96,5.93,0000 0000 0000 0000 000000
2016-10-07 18:14:35,0.03,0.42,0.00,24.62,28.91,31.97,14.59,42.77,1035.59,2027.00,3380.25,3011.98,3418.84,600.12,603.97,5.98,0000 0000 0000 0000 000000
2016-10-07 18:19:36,0.07,0.42,0.00,24.65,28.90,31.92,14.66,42.58,1035.64,2027.01,3378.68,3011.08,3417.74,600.21,604.14,6.03,0000 0000 0000 0000 000000
2016-10-07 18:24:38,0.11,0.42,0.00,24.64,28.89,31.91,14.69,42.78,1035.64,2027.01,3376.50,3009.68,3416.36,600.26,604.24,6.08,0000 0000 0000 0000 000000
2016-10-07 18:29:39,0.18,0.43,0.00,24.64,28.87,31.89,14.60,42.61,1035.64,2027.04,3372.31,3007.34,3413.60,600.00,603.84,6.13,0000 0000 0000 0000 000000
2016-10-07 18:34:41,0.17,0.44,0.00,24.64,28.86,31.93,14.62,42.47,1035.60,2027.03,3368.18,3005.02,3410.92,600.14,603.97,6.18,0000 0000 0000 0000 000000
2016-10-07 18:39:42,0.14,0.45,0.00,24.64,28.85,31.89,14.63,42.51,1035.58,2027.03,3364.50,3002.85,3408.54,599.95,603.62,6.23,0000 0000 0000 0000 000000
2016-10-07 18:44:43,0.15,0.46,0.00,24.65,28.85,31.86,14.64,42.61,1035.53,2027.09,3361.19,3000.88,3406.39,600.30,604.01,6.28,0000 0000 0000 0000 000000
2016-10-07 18:49:45,0.21,0.47,0.00,24.65,28.82,31.88,14.69,42.63,1035.34,2027.12,3356.44,2998.03,3403.22,600.10,603.74,6.33,0000 0000 0000 0000 000000
2016-10-07 18:54:46,0.19,0.48,0.00,24.67,28.82,31.83,14.60,42.58,1035.33,2027.47,3352.26,2995.54,3400.51,600.14,603.83,6.38,0000 0000 0000 0000 000000
2016-10-07 18:59:47,0.16,0.49,0.00,24.66,28.81,31.81,14.56,42.47,1035.26,2027.66,3348.61,2993.37,3398.17,600.12,603.77,6.43,0000 0000 0000 0000 000000
2016-10-07 19:04:49,0.09,0.49,0.00,24.66,28.80,31.82,14.58,42.54,1035.25,2027.58,3345.82,2991.71,3396.40,599.64,603.22,6.48,0000 0000 0000 0000 000000
2016-10-07 19:09:50,0.06,0.50,0.00,24.70,28.79,31.78,14.62,42.51,1035.20,2027.60,3344.13,2990.92,3395.13,600.01,603.47,6.53,0000 0000 0000 0000 000000
2016-10-07 19:14:51,0.07,0.50,0.00,24.69,28.77,31.78,14.60,42.64,1035.20,2027.66,3342.90,2990.08,3394.41,599.91,603.33,6.58,0000 0000 0000 0000 000000
2016-10-07 19:19:52,0.08,0.50,0.00,24.67,28.77,31.79,14.62,42.68,1035.18,2027.89,3341.32,2989.17,3393.43,599.78,603.35,6.64,0000 0000 0000 0000 000000
2016-10-07 19:24:54,0.03,0.50,0.00,24.69,28.75,31.73,14.58,42.77,1035.17,2027.90,3340.43,2988.79,3393.00,599.93,603.41,6.69,0000 0000 0000 0000 000000
2016-10-07 19:29:55,0.03,0.51,0.00,24.68,28.75,31.72,14.60,42.69,1035.18,2027.95,3339.98,2988.10,3392.60,599.91,603.39,6.74,0000 0000 0000 0000 000000
2016-10-07 19:34:56,0.02,0.51,0.00,24.67,28.75,31.71,14.58,42.63,1035.18,2027.98,3339.25,2988.00,3392.04,600.11,603.40,6.79,0000 0000 0000 0000 000000
2016-10-07 19:39:58,0.04,0.51,0.00,24.69,28.72,31.71,14.65,42.63,1035.18,2027.99,3338.55,2987.55,3391.72,600.13,603.71,6.84,0000 0000 0000 0000 000000
2016-10-07 19:44:59,0.03,0.51,0.00,24.68,28.72,31.68,14.52,42.56,1035.18,2027.99,3337.36,2986.88,3391.01,599.70,603.20,6.89,0000 0000 0000 0000 000000
2016-10-07 19:50:00,0.05,0.51,0.00,24.69,28.72,31.68,14.56,42.63,1035.18,2027.99,3336.22,2986.10,3390.34,599.82,603.25,6.94,0000 0000 0000 0000 000000
2016-10-07 19:55:02,0.01,0.51,0.00,24.70,28.70,31.66,14.61,42.78,1035.19,2027.99,3335.63,2985.95,3389.98,600.14,603.63,6.99,0000 0000 0000 0000 000000
2016-10-07 20:00:03,0.05,0.52,0.00,24.70,28.70,31.66,14.66,42.58,1035.19,2027.99,3334.67,2985.17,3389.22,600.33,603.81,7.04,0000 0000 0000 0000 000000
2016-10-07 20:05:04,0.05,0.52,0.00,24.70,28.69,31.63,14.62,42.61,1035.19,2027.99,3333.43,2984.56,3388.52,599.98,603.45,7.09,0000 0000 0000 0000 000000
2016-10-07 20:10:05,0.06,0.52,0.00,24.67,28.67,31.63,14.62,42.52,1035.19,2027.99,3331.86,2983.73,3387.56,599.87,603.40,7.14,0000 0000 0000 0000 000000
2016-10-07 20:15:06,0.02,0.52,0.00,24.70,28.67,31.61,14.66,42.67,1035.18,2027.99,3331.01,2983.02,3387.00,600.35,603.68,7.19,0000 0000 0000 0000 000000
2016-10-07 20:20:07,0.02,0.53,0.00,24.70,28.67,31.63,14.60,42.78,1035.17,2028.00,3330.36,2982.98,3386.61,599.86,603.36,7.24,0000 0000 0000 0000 000000
2016-10-07 20:25:08,0.02,0.53,0.00,24.77,28.65,31.61,14.61,42.64,1035.18,2028.00,3330.01,2982.67,3386.04,600.16,603.48,7.29,0000 0000 0000 0000 000000
2016-10-07 20:30:09,0.01,0.53,0.00,24.73,28.65,31.62,14.63,42.77,1035.17,2028.00,3329.79,2982.11,3386.00,600.35,603.73,7.34,0000 0000 0000 0000 000000
2016-10-07 20:35:10,0.01,0.53,0.00,24.72,28.65,31.62,14.56,42.65,1035.17,2028.00,3329.12,2982.01,3385.96,599.72,603.12,7.39,0000 0000 0000 0000 000000
2016-10-07 20:40:12,0.00,0.53,0.00,24.76,28.65,31.59,14.57,42.59,1035.17,2028.01,3329.03,2982.00,3385.84,600.17,603.56,7.44,0000 0000 0000 0000 000000
2016-10-07 20:45:13,0.00,0.53,0.00,24.77,28.63,31.59,14.51,42.67,1035.17,2028.02,3329.00,2982.00,3385.46,599.63,602.94,7.49,0000 0000 0000 0000 000000
2016-10-07 20:50:15,0.00,0.53,0.00,24.74,28.62,31.60,14.56,42.42,1035.17,2028.01,3328.98,2981.96,3385.06,599.87,603.18,7.54,0000 0000 0000 0000 000000
2016-10-07 20:55:16,0.00,0.53,0.00,24.74,28.62,31.57,14.58,42.63,1035.17,2028.01,3328.83,2981.87,3385.00,600.04,603.37,7.59,0000 0000 0000 0000 000000
2016-10-07 21:00:17,0.02,0.53,0.00,24.77,28.62,31.57,14.58,42.59,1035.16,2028.01,3328.30,2981.53,3385.00,600.12,603.46,7.64,0000 0000 0000 0000 000000
2016-10-07 21:05:18,0.01,0.53,0.00,24.76,28.60,31.55,14.50,42.68,1035.17,2028.01,3328.05,2981.20,3384.97,599.77,603.10,7.69,0000 0000 0000 0000 000000
2016-10-07 21:10:20,0.00,0.53,0.00,24.72,28.60,31.59,14.53,42.68,1035.15,2028.04,3328.02,2981.16,3384.97,599.94,603.33,7.74,0000 0000 0000 0000 000000
2016-10-07 21:15:21,0.00,0.53,0.00,24.77,28.60,31.57,14.53,42.64,1035.06,2028.02,3328.00,2981.05,3384.91,599.73,603.16,7.79,0000 0000 0000 0000 000000